TimePST,TemperatureF,Dew PointF,Humidity,Sea Level PressureIn,VisibilityMPH,Wind Direction,Wind SpeedMPH,Gust SpeedMPH,PrecipitationIn,Events,Conditions,WindDirDegrees,DateUTC
12:53 AM,-6.0,-11.0,79,30.60,-9999.0,SSW,5.8,-,N/A,,Unknown,210,2013-01-02 08:53:00
1:53 AM,-7.1,-11.9,79,30.59,-9999.0,SW,9.2,-,N/A,,Unknown,230,2013-01-02 09:53:00
2:53 AM,-2.9,-8.0,79,30.56,-9999.0,SSW,8.1,-,N/A,,Unknown,210,2013-01-02 10:53:00
3:53 AM,-5.1,-9.9,80,30.58,-9999.0,SW,9.2,-,N/A,,Unknown,220,2013-01-02 11:53:00
4:53 AM,-6.0,-9.9,83,30.60,-9999.0,SW,8.1,-,N/A,,Unknown,220,2013-01-02 12:53:00
5:53 AM,-9.0,-14.1,79,30.65,-9999.0,SW,5.8,-,N/A,,Unknown,230,2013-01-02 13:53:00
6:53 AM,-0.9,-5.1,83,30.65,-9999.0,SSW,5.8,-,N/A,,Unknown,200,2013-01-02 14:53:00
7:53 AM,-0.9,-6.0,79,30.65,-9999.0,Calm,Calm,-,N/A,,Unknown,0,2013-01-02 15:53:00
8:53 AM,1.9,-2.0,83,30.68,-9999.0,Calm,Calm,-,N/A,,Unknown,0,2013-01-02 16:53:00
9:53 AM,7.0,-0.9,70,30.63,-9999.0,Calm,Calm,-,N/A,,Unknown,0,2013-01-02 17:53:00
10:53 AM,14.0,3.9,64,30.59,-9999.0,Calm,Calm,-,N/A,,Unknown,0,2013-01-02 18:53:00
11:53 AM,18.0,5.0,57,30.53,-9999.0,NE,4.6,-,N/A,,Unknown,40,2013-01-02 19:53:00
12:53 PM,21.9,6.1,51,30.48,-9999.0,NNE,5.8,-,N/A,,Unknown,30,2013-01-02 20:53:00
1:53 PM,23.0,8.1,53,30.48,-9999.0,North,6.9,-,N/A,,Unknown,360,2013-01-02 21:53:00
2:53 PM,21.9,8.1,55,30.48,-9999.0,NNE,5.8,-,N/A,,Unknown,20,2013-01-02 22:53:00
3:53 PM,18.0,6.1,60,30.51,-9999.0,Calm,Calm,-,N/A,,Unknown,0,2013-01-02 23:53:00
4:53 PM,7.0,1.0,77,30.57,-9999.0,Calm,Calm,-,N/A,,Unknown,0,2013-01-03 00:53:00
5:53 PM,1.0,-5.1,75,30.62,-9999.0,South,6.9,-,N/A,,Unknown,180,2013-01-03 01:53:00
6:53 PM,-2.0,-9.9,69,30.61,-9999.0,Calm,Calm,-,N/A,,Unknown,0,2013-01-03 02:53:00
7:53 PM,-6.0,-11.9,75,30.62,-9999.0,South,3.5,-,N/A,,Unknown,170,2013-01-03 03:53:00
8:53 PM,-8.0,-14.1,75,30.63,-9999.0,SSW,4.6,-,N/A,,Unknown,200,2013-01-03 04:53:00
9:53 PM,-7.1,-11.0,83,30.59,-9999.0,South,5.8,-,N/A,,Unknown,190,2013-01-03 05:53:00
10:53 PM,-9.9,-14.1,82,30.57,-9999.0,SW,3.5,-,N/A,,Unknown,230,2013-01-03 06:53:00
11:53 PM,-13.0,-18.0,78,30.56,-9999.0,SSW,6.9,-,N/A,,Unknown,210,2013-01-03 07:53:00